Find Starlink 38232

NORAD ID: 100260 Int'l Des: 2026-181 Owner: SPXS Country: US Constellation: starlink operational

Current View

Loading 3D Globe...

About Starlink 38232

Starlink 38232 (NORAD 100260) is a starlink constellation satellite launched Aug 8, 2026 by SPXS of US. with a mass of 575.00 kg.

Upcoming Passes

Passes for default location (London). Set your location on the main map for personalized predictions.

Altitude History

Loading altitude history...

Two-Line Element Set

1 A0260U 26181Q 26251.59608708 .00377050 00000-0 23859-2 0 9996
2 A0260 97.2851 294.5603 0001382 39.2701 320.8664 15.75506916 6085
Epoch: Sep 8, 2026 • Age: 5 hours

Current Status

Altitude 347.5 km
Apogee / Perigee N/A
Velocity 7.70 km/s
Sub-Earth Point 33.10°N, 160.82°W
Launch Date Aug 8, 2026
Age 31 days
Type internet

Technical Details

Classification Payload
Mass 575.00 kg
Dry Mass 530.00 kg
Total Mass 575.00 kg
Length 0.30 m
Diameter 4.10 m
Span 29.00 m
Shape Box + pan
Manufacturer SPXS
Bus Type Starlink V2MO
Phase Status In Orbit
Owner/State SPXS/US

Most Searched